UTA262 USSS-USHU

Flight info

Callsign UTA262
Flight time 1h 7m
Altitude 15000
Route N0240F150 DOSUM L992 GIMAK T796 MILGA
Aircraft AN24/M-I/L

Departure

Time 2026-04-25 09:03
Airport Koltsovo Airport (USSS)

Arrival

Time 2026-04-25 10:10
Airport Uray Airport (USHU)
Time Latitude Longitude Altitude Speed Heading
2026-04-25 07:44 56.74797 60.80538 778 ft 0 kts
2026-04-25 08:54 56.74801 60.80538 778 ft 2 kts
2026-04-25 08:55 56.74849 60.80577 778 ft 9 kts 76°
2026-04-25 08:55 56.74850 60.80741 778 ft 18 kts 91°
2026-04-25 08:55 56.74849 60.80941 778 ft 14 kts 91°
2026-04-25 08:55 56.74862 60.81124 778 ft 18 kts 87°
2026-04-25 08:56 56.74863 60.81328 778 ft 13 kts 90°
2026-04-25 08:56 56.74863 60.81524 778 ft 17 kts 91°
2026-04-25 08:56 56.74863 60.81715 778 ft 14 kts 89°
2026-04-25 08:56 56.74828 60.81957 778 ft 18 kts 115°
2026-04-25 08:57 56.74777 60.82147 778 ft 14 kts 119°
2026-04-25 08:57 56.74679 60.82200 778 ft 14 kts 179°
2026-04-25 08:57 56.74587 60.82202 778 ft 15 kts 180°
2026-04-25 08:57 56.74469 60.82199 778 ft 21 kts 181°
2026-04-25 08:58 56.74339 60.82186 778 ft 16 kts 182°
2026-04-25 08:58 56.74244 60.82174 778 ft 11 kts 184°
2026-04-25 08:58 56.74185 60.82167 778 ft 0 kts 186°
2026-04-25 08:59 56.74174 60.82165 778 ft 10 kts 186°
2026-04-25 08:59 56.74110 60.82158 778 ft 7 kts 182°
2026-04-25 09:00 56.74063 60.82108 778 ft 11 kts 265°
2026-04-25 09:00 56.74070 60.81987 778 ft 7 kts 274°
2026-04-25 09:00 56.74072 60.81935 778 ft 0 kts 274°
2026-04-25 09:02 56.74075 60.81824 778 ft 38 kts 273°
2026-04-25 09:02 56.74114 60.80897 778 ft 101 kts 272°
2026-04-25 09:02 56.74181 60.79383 810 ft 133 kts 274°
2026-04-25 09:03 56.74278 60.77627 1044 ft 147 kts 274°
2026-04-25 09:03 56.74385 60.75707 1348 ft 157 kts 270°
2026-04-25 09:03 56.74464 60.73658 1594 ft 169 kts 270°
2026-04-25 09:03 56.74515 60.71570 2052 ft 165 kts 269°
2026-04-25 09:04 56.74582 60.69425 2249 ft 176 kts 269°
2026-04-25 09:04 56.74665 60.67166 2500 ft 178 kts 269°
2026-04-25 09:04 56.74746 60.64958 2895 ft 173 kts 269°
2026-04-25 09:04 56.74818 60.62760 3123 ft 178 kts 269°
2026-04-25 09:05 56.74609 60.60550 3314 ft 179 kts 245°
2026-04-25 09:05 56.73889 60.58747 3633 ft 175 kts 223°
2026-04-25 09:05 56.72858 60.57679 3964 ft 173 kts 201°
2026-04-25 09:05 56.71669 60.57388 4222 ft 178 kts 179°
2026-04-25 09:06 56.70463 60.58100 4405 ft 189 kts 156°
2026-04-25 09:06 56.69500 60.59724 4681 ft 197 kts 130°
2026-04-25 09:06 56.68997 60.62036 5040 ft 200 kts 104°
2026-04-25 09:06 56.69072 60.64612 5244 ft 210 kts 79°
2026-04-25 09:07 56.69660 60.67014 5636 ft 205 kts 64°
2026-04-25 09:07 56.70349 60.69192 6032 ft 200 kts 62°
2026-04-25 09:07 56.71064 60.71382 6264 ft 204 kts 62°
2026-04-25 09:07 56.71789 60.73617 6494 ft 207 kts 62°
2026-04-25 09:08 56.72510 60.75850 6774 ft 206 kts 62°
2026-04-25 09:08 56.73251 60.78070 7062 ft 206 kts 61°
2026-04-25 09:08 56.74087 60.80184 7299 ft 209 kts 47°
2026-04-25 09:08 56.75269 60.81802 7467 ft 214 kts 30°
2026-04-25 09:09 56.76544 60.83128 7801 ft 209 kts 28°
2026-04-25 09:09 56.77795 60.84372 8095 ft 208 kts 28°
2026-04-25 09:09 56.79091 60.85635 8325 ft 211 kts 26°
2026-04-25 09:09 56.80376 60.86849 8637 ft 208 kts 26°
2026-04-25 09:10 56.81663 60.88065 8888 ft 209 kts 27°
2026-04-25 09:10 56.82942 60.89352 9119 ft 212 kts 30°
2026-04-25 09:10 56.84208 60.90699 9380 ft 212 kts 30°
2026-04-25 09:10 56.85481 60.92067 9685 ft 210 kts 30°
2026-04-25 09:11 56.88011 60.94818 10177 ft 213 kts 30°
2026-04-25 09:11 56.89283 60.96183 10415 ft 214 kts 31°
2026-04-25 09:11 56.90554 60.97562 10644 ft 214 kts 31°
2026-04-25 09:12 56.91839 60.98961 10877 ft 214 kts 30°
2026-04-25 09:12 56.93118 61.00352 11091 ft 214 kts 30°
2026-04-25 09:12 56.94393 61.01736 11286 ft 214 kts 31°
2026-04-25 09:12 56.95676 61.03132 11468 ft 216 kts 30°
2026-04-25 09:13 56.96962 61.04531 11664 ft 217 kts 31°
2026-04-25 09:13 56.98270 61.05955 11843 ft 219 kts 30°
2026-04-25 09:13 56.99595 61.07400 12013 ft 222 kts 30°
2026-04-25 09:13 57.00908 61.08861 12199 ft 222 kts 32°
2026-04-25 09:14 57.02230 61.10358 12390 ft 223 kts 32°
2026-04-25 09:14 57.03541 61.11844 12570 ft 225 kts 31°
2026-04-25 09:14 57.04882 61.13367 12746 ft 226 kts 32°
2026-04-25 09:14 57.06201 61.14870 12919 ft 227 kts 31°
2026-04-25 09:15 57.07564 61.16428 13093 ft 229 kts 31°
2026-04-25 09:15 57.08911 61.17959 13275 ft 229 kts 31°
2026-04-25 09:15 57.10275 61.19470 13448 ft 231 kts 30°
2026-04-25 09:15 57.11659 61.20989 13616 ft 232 kts 30°
2026-04-25 09:16 57.13040 61.22509 13778 ft 233 kts 30°
2026-04-25 09:16 57.14418 61.24028 13927 ft 233 kts 30°
2026-04-25 09:16 57.15815 61.25567 14086 ft 234 kts 30°
2026-04-25 09:16 57.17207 61.27103 14246 ft 234 kts 30°
2026-04-25 09:17 57.19996 61.30188 14546 ft 236 kts 31°
2026-04-25 09:17 57.21407 61.31747 14649 ft 240 kts 31°
2026-04-25 09:17 57.22865 61.33360 14644 ft 249 kts 31°
2026-04-25 09:18 57.24364 61.35017 14661 ft 255 kts 31°
2026-04-25 09:18 57.25888 61.36706 14685 ft 259 kts 31°
2026-04-25 09:18 57.27431 61.38416 14679 ft 262 kts 30°
2026-04-25 09:18 57.29015 61.40174 14669 ft 265 kts 30°
2026-04-25 09:19 57.30581 61.41919 14661 ft 268 kts 31°
2026-04-25 09:19 57.32170 61.43736 14661 ft 270 kts 32°
2026-04-25 09:19 57.33765 61.45582 14654 ft 272 kts 31°
2026-04-25 09:19 57.35370 61.47442 14647 ft 273 kts 31°
2026-04-25 09:20 57.36985 61.49316 14660 ft 273 kts 31°
2026-04-25 09:20 57.38576 61.51168 14656 ft 274 kts 32°
2026-04-25 09:20 57.40189 61.53047 14661 ft 275 kts 32°
2026-04-25 09:20 57.41806 61.54934 14639 ft 276 kts 32°
2026-04-25 09:21 57.43436 61.56839 14648 ft 276 kts 32°
2026-04-25 09:21 57.45050 61.58727 14646 ft 277 kts 32°
2026-04-25 09:21 57.46681 61.60632 14646 ft 277 kts 32°
2026-04-25 09:21 57.48298 61.62525 14653 ft 277 kts 31°
2026-04-25 09:22 57.49931 61.64439 14623 ft 278 kts 32°
2026-04-25 09:22 57.51557 61.66349 14624 ft 278 kts 33°
2026-04-25 09:22 57.53200 61.68281 14633 ft 277 kts 33°
2026-04-25 09:22 57.54810 61.70176 14644 ft 277 kts 33°
2026-04-25 09:23 57.56443 61.72097 14667 ft 276 kts 33°
2026-04-25 09:23 57.58072 61.74016 14601 ft 279 kts 32°
2026-04-25 09:23 57.59696 61.75931 14606 ft 279 kts 33°
2026-04-25 09:23 57.61332 61.77863 14696 ft 275 kts 32°
2026-04-25 09:24 57.62949 61.79776 14630 ft 278 kts 33°
2026-04-25 09:24 57.64606 61.81613 14607 ft 279 kts 25°
2026-04-25 09:24 57.66410 61.82844 14732 ft 272 kts 14°
2026-04-25 09:24 57.68230 61.83816 14579 ft 279 kts 13°
2026-04-25 09:25 57.70116 61.84786 14545 ft 279 kts 13°
2026-04-25 09:25 57.71939 61.85728 14708 ft 272 kts 13°
2026-04-25 09:25 57.73762 61.86669 14664 ft 275 kts 13°
2026-04-25 09:25 57.75637 61.87633 14544 ft 280 kts 13°
2026-04-25 09:26 57.77471 61.88583 14682 ft 272 kts 13°
2026-04-25 09:26 57.79273 61.89520 14724 ft 271 kts 13°
2026-04-25 09:26 57.81107 61.90468 14569 ft 278 kts 13°
2026-04-25 09:26 57.82972 61.91434 14646 ft 274 kts 13°
2026-04-25 09:27 57.84774 61.92374 14754 ft 270 kts 12°
2026-04-25 09:27 57.86611 61.93327 14602 ft 278 kts 13°
2026-04-25 09:27 57.88471 61.94291 14591 ft 277 kts 13°
2026-04-25 09:27 57.90296 61.95246 14731 ft 269 kts 13°
2026-04-25 09:28 57.92083 61.96180 14657 ft 274 kts 13°
2026-04-25 09:28 57.93946 61.97148 14526 ft 279 kts 13°
2026-04-25 09:28 57.95777 61.98106 14679 ft 270 kts 13°
2026-04-25 09:28 57.97590 61.99059 14699 ft 271 kts 13°
2026-04-25 09:29 57.99417 62.00013 14546 ft 278 kts 13°
2026-04-25 09:29 58.01269 62.00982 14629 ft 273 kts 13°
2026-04-25 09:29 58.03087 62.01941 14739 ft 269 kts 13°
2026-04-25 09:29 58.04901 62.02893 14572 ft 277 kts 13°
2026-04-25 09:30 58.06765 62.03870 14573 ft 276 kts 13°
2026-04-25 09:30 58.08562 62.04820 14724 ft 268 kts 13°
2026-04-25 09:30 58.10371 62.05775 14604 ft 275 kts 13°
2026-04-25 09:30 58.12231 62.06752 14519 ft 277 kts 13°
2026-04-25 09:31 58.14052 62.07717 14692 ft 269 kts 13°
2026-04-25 09:31 58.15873 62.08683 14657 ft 271 kts 13°
2026-04-25 09:31 58.17705 62.09650 14550 ft 275 kts 13°
2026-04-25 09:31 58.19515 62.10609 14624 ft 271 kts 13°
2026-04-25 09:32 58.21326 62.11572 14675 ft 269 kts 13°
2026-04-25 09:32 58.23121 62.12527 14590 ft 273 kts 13°
2026-04-25 09:32 58.24946 62.13538 14591 ft 273 kts 14°
2026-04-25 09:32 58.26756 62.14566 14666 ft 270 kts 14°
2026-04-25 09:33 58.28555 62.15590 14632 ft 272 kts 14°
2026-04-25 09:33 58.30367 62.16617 14569 ft 275 kts 14°
2026-04-25 09:33 58.32188 62.17657 14668 ft 270 kts 14°
2026-04-25 09:33 58.33966 62.18671 14680 ft 270 kts 14°
2026-04-25 09:34 58.35762 62.19695 14592 ft 273 kts 14°
2026-04-25 09:34 58.37587 62.20741 14642 ft 270 kts 15°
2026-04-25 09:34 58.39371 62.21762 14692 ft 268 kts 14°
2026-04-25 09:34 58.41164 62.22788 14614 ft 272 kts 14°
2026-04-25 09:35 58.42972 62.23827 14603 ft 271 kts 14°
2026-04-25 09:35 58.44735 62.24840 14687 ft 267 kts 14°
2026-04-25 09:35 58.46525 62.25867 14635 ft 268 kts 14°
2026-04-25 09:35 58.48315 62.26898 14588 ft 268 kts 14°
2026-04-25 09:36 58.50079 62.27915 14677 ft 264 kts 14°
2026-04-25 09:36 58.51831 62.28924 14670 ft 266 kts 14°
2026-04-25 09:36 58.53595 62.29943 14583 ft 270 kts 15°
2026-04-25 09:36 58.55388 62.30978 14623 ft 268 kts 14°
2026-04-25 09:37 58.57158 62.32004 14699 ft 266 kts 15°
2026-04-25 09:37 58.58941 62.33033 14612 ft 271 kts 15°
2026-04-25 09:37 58.60765 62.34090 14598 ft 272 kts 15°
2026-04-25 09:37 58.62529 62.35115 14673 ft 268 kts 15°
2026-04-25 09:38 58.64326 62.36158 14639 ft 270 kts 15°
2026-04-25 09:38 58.66112 62.37198 14588 ft 271 kts 15°
2026-04-25 09:38 58.67895 62.38237 14634 ft 266 kts 15°
2026-04-25 09:38 58.69673 62.39273 14667 ft 266 kts 15°
2026-04-25 09:39 58.71441 62.40306 14582 ft 269 kts 15°
2026-04-25 09:39 58.73238 62.41355 14599 ft 266 kts 15°
2026-04-25 09:39 58.74984 62.42356 14671 ft 265 kts 14°
2026-04-25 09:40 58.78566 62.44324 14569 ft 271 kts 14°
2026-04-25 09:40 58.80374 62.45320 14669 ft 267 kts 14°
2026-04-25 09:40 58.82149 62.46297 14644 ft 268 kts 13°
2026-04-25 09:40 58.83936 62.47281 14585 ft 270 kts 14°
2026-04-25 09:41 58.85735 62.48275 14663 ft 267 kts 14°
2026-04-25 09:41 58.87513 62.49255 14662 ft 268 kts 14°
2026-04-25 09:41 58.89330 62.50259 14586 ft 272 kts 14°
2026-04-25 09:41 58.91124 62.51253 14647 ft 269 kts 14°
2026-04-25 09:42 58.92909 62.52240 14672 ft 269 kts 14°
2026-04-25 09:42 58.94713 62.53241 14586 ft 273 kts 14°
2026-04-25 09:42 58.96548 62.54259 14629 ft 269 kts 14°
2026-04-25 09:42 58.98323 62.55245 14701 ft 267 kts 14°
2026-04-25 09:43 59.00120 62.56244 14621 ft 271 kts 14°
2026-04-25 09:43 59.01920 62.57245 14610 ft 271 kts 14°
2026-04-25 09:43 59.03718 62.58247 14693 ft 268 kts 14°
2026-04-25 09:43 59.05518 62.59249 14622 ft 271 kts 14°
2026-04-25 09:44 59.07324 62.60258 14585 ft 272 kts 14°
2026-04-25 09:44 59.09132 62.61268 14677 ft 268 kts 14°
2026-04-25 09:44 59.10906 62.62261 14624 ft 270 kts 14°
2026-04-25 09:44 59.12712 62.63271 14564 ft 271 kts 14°
2026-04-25 09:45 59.14518 62.64286 14646 ft 267 kts 14°
2026-04-25 09:45 59.16307 62.65292 14645 ft 267 kts 15°
2026-04-25 09:45 59.18095 62.66295 14566 ft 270 kts 15°
2026-04-25 09:45 59.19899 62.67311 14631 ft 266 kts 15°
2026-04-25 09:46 59.21678 62.68313 14662 ft 266 kts 15°
2026-04-25 09:46 59.23450 62.69311 14582 ft 269 kts 15°
2026-04-25 09:46 59.25246 62.70326 14592 ft 267 kts 15°
2026-04-25 09:46 59.26987 62.71310 14669 ft 262 kts 15°
2026-04-25 09:47 59.28759 62.72313 14600 ft 264 kts 15°
2026-04-25 09:47 59.30510 62.73304 14577 ft 264 kts 15°
2026-04-25 09:47 59.32250 62.74292 14659 ft 261 kts 15°
2026-04-25 09:47 59.33989 62.75279 14631 ft 263 kts 15°
2026-04-25 09:48 59.35765 62.76287 14574 ft 266 kts 15°
2026-04-25 09:48 59.37488 62.77443 14658 ft 262 kts 26°
2026-04-25 09:48 59.38997 62.79409 14692 ft 260 kts 44°
2026-04-25 09:48 59.40218 62.82038 14606 ft 261 kts 55°
2026-04-25 09:49 59.41332 62.84842 14570 ft 262 kts 57°
2026-04-25 09:49 59.42408 62.87651 14673 ft 258 kts 57°
2026-04-25 09:49 59.43456 62.90473 14658 ft 259 kts 58°
2026-04-25 09:49 59.44521 62.93390 14564 ft 263 kts 58°
2026-04-25 09:50 59.45567 62.96254 14649 ft 258 kts 58°
2026-04-25 09:50 59.46608 62.99102 14662 ft 257 kts 58°
2026-04-25 09:50 59.47662 63.02000 14587 ft 261 kts 58°
2026-04-25 09:50 59.48708 63.04874 14624 ft 258 kts 58°
2026-04-25 09:51 59.49748 63.07731 14670 ft 256 kts 58°
2026-04-25 09:51 59.50785 63.10590 14603 ft 261 kts 58°
2026-04-25 09:51 59.51831 63.13481 14605 ft 261 kts 58°
2026-04-25 09:51 59.52883 63.16381 14690 ft 257 kts 58°
2026-04-25 09:52 59.53921 63.19254 14638 ft 261 kts 58°
2026-04-25 09:52 59.54969 63.22160 14589 ft 263 kts 58°
2026-04-25 09:52 59.56027 63.25090 14675 ft 259 kts 58°
2026-04-25 09:52 59.57067 63.27974 14669 ft 260 kts 58°
2026-04-25 09:53 59.58108 63.30872 14587 ft 264 kts 58°
2026-04-25 09:53 59.59166 63.33813 14638 ft 261 kts 58°
2026-04-25 09:53 59.60219 63.36746 14676 ft 260 kts 58°
2026-04-25 09:53 59.61263 63.39664 14577 ft 264 kts 58°
2026-04-25 09:54 59.62309 63.42586 14610 ft 262 kts 58°
2026-04-25 09:54 59.63355 63.45507 14686 ft 259 kts 58°
2026-04-25 09:54 59.64391 63.48412 14609 ft 262 kts 58°
2026-04-25 09:54 59.65448 63.51377 14587 ft 263 kts 58°
2026-04-25 09:55 59.66479 63.54268 14693 ft 258 kts 58°
2026-04-25 09:55 59.67526 63.57210 14655 ft 261 kts 58°
2026-04-25 09:55 59.68572 63.60158 14604 ft 264 kts 57°
2026-04-25 09:55 59.69611 63.63083 14631 ft 262 kts 58°
2026-04-25 09:56 59.70655 63.66027 14700 ft 259 kts 58°
2026-04-25 09:56 59.71684 63.68938 14620 ft 263 kts 58°
2026-04-25 09:56 59.72749 63.71950 14596 ft 264 kts 58°
2026-04-25 09:56 59.73786 63.74888 14683 ft 259 kts 59°
2026-04-25 09:57 59.74807 63.77785 14641 ft 260 kts 59°
2026-04-25 09:57 59.75849 63.80745 14604 ft 262 kts 58°
2026-04-25 09:57 59.76886 63.83691 14626 ft 261 kts 59°
2026-04-25 09:57 59.77920 63.86639 14630 ft 260 kts 58°
2026-04-25 09:58 59.78954 63.89536 14640 ft 260 kts 58°
2026-04-25 09:58 59.80003 63.92488 14619 ft 261 kts 59°
2026-04-25 09:58 59.81047 63.95424 14644 ft 261 kts 58°
2026-04-25 09:58 59.82089 63.98336 14651 ft 260 kts 58°
2026-04-25 09:59 59.83141 64.01281 14640 ft 260 kts 58°
2026-04-25 09:59 59.84174 64.04172 14603 ft 254 kts 58°
2026-04-25 09:59 59.85181 64.06995 14219 ft 253 kts 58°
2026-04-25 09:59 59.86201 64.09855 13810 ft 252 kts 57°
2026-04-25 10:00 59.87200 64.12645 13488 ft 247 kts 57°
2026-04-25 10:00 59.88195 64.15404 13090 ft 246 kts 57°
2026-04-25 10:00 59.89196 64.18156 12683 ft 246 kts 56°
2026-04-25 10:00 59.90205 64.20885 12339 ft 241 kts 56°
2026-04-25 10:01 59.91196 64.23520 11911 ft 242 kts 55°
2026-04-25 10:01 59.92209 64.26185 11516 ft 239 kts 55°
2026-04-25 10:01 59.93195 64.28812 11060 ft 240 kts 56°
2026-04-25 10:01 59.94183 64.31494 10544 ft 242 kts 56°
2026-04-25 10:02 59.95178 64.34186 10100 ft 239 kts 55°
2026-04-25 10:02 59.96154 64.36817 9531 ft 243 kts 56°
2026-04-25 10:02 59.97136 64.39557 8897 ft 247 kts 57°
2026-04-25 10:02 59.98122 64.42323 8318 ft 247 kts 56°
2026-04-25 10:03 59.99140 64.45116 7692 ft 248 kts 56°
2026-04-25 10:03 60.00135 64.47850 7184 ft 244 kts 56°
2026-04-25 10:03 60.01125 64.50545 6693 ft 240 kts 55°
2026-04-25 10:03 60.02125 64.53185 6131 ft 240 kts 54°
2026-04-25 10:04 60.03144 64.55805 5579 ft 239 kts 54°
2026-04-25 10:04 60.04155 64.58367 5081 ft 235 kts 53°
2026-04-25 10:04 60.05182 64.60917 4534 ft 234 kts 53°
2026-04-25 10:04 60.06149 64.63438 4156 ft 226 kts 56°
2026-04-25 10:05 60.07052 64.65902 3929 ft 212 kts 59°
2026-04-25 10:05 60.07710 64.68432 3699 ft 200 kts 74°
2026-04-25 10:05 60.08145 64.71002 3524 ft 189 kts 75°
2026-04-25 10:05 60.08575 64.73426 3273 ft 185 kts 75°
2026-04-25 10:06 60.09021 64.75807 3031 ft 182 kts 72°
2026-04-25 10:06 60.09470 64.78091 2952 ft 168 kts 74°
2026-04-25 10:06 60.09846 64.80199 2807 ft 156 kts 76°
2026-04-25 10:06 60.10178 64.82160 2503 ft 143 kts 77°
2026-04-25 10:07 60.10520 64.84055 2365 ft 140 kts 73°
2026-04-25 10:07 60.10874 64.85752 2398 ft 128 kts 71°
2026-04-25 10:07 60.11261 64.87353 2290 ft 126 kts 68°
2026-04-25 10:07 60.11698 64.88888 2088 ft 130 kts 60°
2026-04-25 10:08 60.12400 64.90065 1801 ft 139 kts 30°
2026-04-25 10:08 60.13323 64.90543 1746 ft 135 kts
2026-04-25 10:08 60.14223 64.90019 1531 ft 138 kts 326°
2026-04-25 10:08 60.14800 64.88574 1316 ft 134 kts 288°
2026-04-25 10:09 60.14857 64.86797 1113 ft 127 kts 251°
2026-04-25 10:09 60.14427 64.85304 939 ft 121 kts 222°
2026-04-25 10:09 60.13774 64.84311 764 ft 118 kts 208°
2026-04-25 10:09 60.13019 64.83649 546 ft 118 kts 197°
2026-04-25 10:10 60.12223 64.83239 331 ft 118 kts 191°
2026-04-25 10:10 60.11450 64.82896 202 ft 104 kts 190°
2026-04-25 10:10 60.10892 64.82655 198 ft 60 kts 193°
2026-04-25 10:10 60.10682 64.82539 196 ft 11 kts 192°
2026-04-25 10:11 60.10686 64.82574 196 ft 6 kts
2026-04-25 10:11 60.10823 64.82627 197 ft 25 kts 15°
2026-04-25 10:11 60.10994 64.82700 198 ft 26 kts 13°
2026-04-25 10:11 60.11187 64.82783 200 ft 28 kts 12°
2026-04-25 10:12 60.11361 64.82858 201 ft 25 kts 12°
2026-04-25 10:12 60.11500 64.82803 200 ft 19 kts 280°
2026-04-25 10:12 60.11627 64.82616 199 ft 10 kts
2026-04-25 10:13 60.11695 64.82642 198 ft 9 kts 12°
2026-04-25 10:13 60.11737 64.82597 198 ft 7 kts 285°
2026-04-25 10:13 60.11735 64.82516 199 ft 4 kts 219°
2026-04-25 10:13 60.11704 64.82495 200 ft 4 kts 193°
2026-04-25 10:14 60.11702 64.82494 200 ft 0 kts 192°